Regional Weather Roundup
Issued by NWS Northern Indiana

Home | Current Version | Previous Version | Text Only | Print | Product List | Glossary On
Versions: 1 2 3 4 5 6 7 8 9 10 11 12 13 14 15 16 17 18 19 20 21 22 23 24 25 26 27 28 29 30 31 32 33 34 35 36 37 38 39 40 41 42 43 44 45 46 47 48 49 50
000
ASUS43 KIWX 211310
RWRIWX

KIWX WEATHER ROUNDUP
NATIONAL WEATHER SERVICE NORTHERN INDIANA
900 AM EDT TUE APR 21 2015

NOTE: "FAIR" INDICATES FEW OR NO CLOUDS BELOW 12,000 FEET WITH NO
SIGNIFICANT WEATHER AND/OR OBSTRUCTIONS TO VISIBILITY.

* THESE STATIONS ARE NOT UNDER NWS QUALITY CONTROL. THEY ALSO MAY NOT
  REPORT WEATHER SUCH AS PRECIPITATION OR FOG.

INZ001>027-211400-
NORTHERN INDIANA

CITY           SKY/WX    TMP DP  RH WIND       PRES   REMARKS
GARY*          MOSUNNY   45  27  49 SW18      29.64S
VALPARAISO     SUNNY     43  30  60 SW16      29.65S
MICHIGAN CITY* SUNNY     43  28  56 SW12      29.64S
LAPORTE*       SUNNY     44  33  64 SW12G22   29.65S
KNOX*          MOSUNNY   43  18  36 W17G25    29.65S
SOUTH BEND     SUNNY     44  31  60 W14G25    29.64R
ELKHART*       SUNNY     43  28  56 SW16G26   29.63R
GOSHEN         MOSUNNY   42  32  67 SW16G24   29.64R
MONTICELLO*    SUNNY     42  35  78 SW12      29.70R
LOGANSPORT*      N/A    N/A N/A N/A SW14      29.71S
ROCHESTER*     SUNNY     45  36  70 SW12G21   29.68S
WARSAW*        SUNNY     43  32  65 W18G26    29.66R
ANGOLA*        SUNNY     45  30  57 W21       29.61S
FORT WAYNE     MOSUNNY   45  35  68 SW17      29.68S
HUNTINGTON*    SUNNY     45  30  57 SW13      29.69S
PERU/GRISSOM   SUNNY     44  35  72 SW16      29.69S
MARION*        SUNNY     43  34  69 W18       29.72S

$$
INZ028>050-211400-
CENTRAL INDIANA

CITY           SKY/WX    TMP DP  RH WIND       PRES   REMARKS
LAFAYETTE      SUNNY     43  34  70 SW10      29.73R
KOKOMO*        SUNNY     45  34  65 W21       29.72R
MUNCIE*        SUNNY     46  33  60 W16G26    29.73R
INDIANAPOLIS   MOSUNNY   47  33  58 SW17      29.76R

$$
MIZ043>046-050>051-056>058-064>065-071>073-077>080-211400-
SOUTHWEST LOWER MICHIGAN

CITY           SKY/WX    TMP DP  RH WIND       PRES   REMARKS
BATTLE CREEK   CLOUDY    42  32  67 W20G30    29.56S
BENTON HARBOR  CLOUDY    40  31  70 SW21G33   29.60R
COLDWATER*     SUNNY     42  32  66 SW18G28   29.59S
HILLSDALE*     SUNNY     44  30  58 W15G32    29.58S
HOLLAND        CLOUDY    42  32  67 SW23G35   29.55R
GRAND RAPIDS   CLOUDY    41  31  67 W26G33    29.52S
KALAMAZOO      PTSUNNY   43  32  65 SW14G22   29.57S
STURGIS*       MOSUNNY   43  34  70 SW17G28   29.60S
THREE RIVERS*  FAIR      43  31  63 W10G23    29.60S

$$
OHZ001>008-015>018-024>025-211400-
NORTHWEST OHIO

CITY           SKY/WX    TMP DP  RH WIND       PRES   REMARKS
WAUSEON*       FAIR      45  34  65 SW22G30   29.62R
DEFIANCE       SUNNY     46  35  65 SW17G26   29.65S
FINDLAY        SUNNY     48  34  58 SW21G30   29.67R
TOLEDO EXPRESS SUNNY     46  32  58 SW17G28   29.62S
TOLEDO METCALF SUNNY     47  35  63 SW21G26   29.64S
LIMA           SUNNY     47  34  60 SW21      29.69S

$$
AND FOR LAKE MICHIGAN COASTAL AND OPEN LAKE BUOY OBSERVATIONS

STATION/POSITION TEMP    WIND        PRES    VSBY  WAVE
                 AIR SEA DIR/SP/G                  HT/PER
                 (F)     (DEG/KT/KT) (MB)    (MI)  (FT/S)
CALUMET HARBOR    44     240/ 14/ 21   N/A
MICHIGAN CITY     43     210/ 23/ 27   N/A
BURNS HARBOR      43     240/ 20/ 23 1004.1S
SAINT JOSEPH      42     210/ 20/ 26 1003.4R
MICHIGAN CITY     43 46  250/ 17/ 23   N/A           6/ 5
SAINT JOSEPH CG                      1001.9      6   5

$$
&&


USA.gov is the U.S. government's official web portal to all federal, state and local government web resources and services.